This is the latest recevied weather packets stored in our database for station/object N4HAC. If no packets are shown the sender has not sent any weather packets the latest 10 day(s).
| Time | Temp. | Humidity | Pressure | Rain* | Wind** | Luminosity | Snow |
|---|---|---|---|---|---|---|---|
| 1777086934 | 15° C | 92% | 1003.5 hPa | 0 mm | - | 0 W/m² | - |
| 1777086629 | 15.56° C | 90% | 1003.7 hPa | 0 mm | - | 0 W/m² | - |
| 1777086325 | 15.56° C | 89% | 1003.8 hPa | 0 mm | - | 0 W/m² | - |
| 1777086021 | 16.11° C | 89% | 1003.9 hPa | 0 mm | - | 0 W/m² | - |
| 1777085718 | 16.11° C | 89% | 1003.8 hPa | 0 mm | - | 0 W/m² | - |
| 1777085414 | 16.11° C | 89% | 1003.9 hPa | 0 mm | - | 0 W/m² | - |
| 1777085110 | 16.67° C | 87% | 1003.9 hPa | 0 mm | - | 0 W/m² | - |
| 1777084806 | 16.67° C | 87% | 1003.9 hPa | 0 mm | - | 0 W/m² | - |
| 1777084501 | 16.67° C | 87% | 1003.8 hPa | 0 mm | - | 0 W/m² | - |
| 1777084196 | 16.67° C | 86% | 1004 hPa | 0 mm | - | 0 W/m² | - |
| 1777083893 | 16.67° C | 87% | 1003.9 hPa | 0 mm | - | 0 W/m² | - |
| 1777083589 | 17.22° C | 85% | 1003.9 hPa | 0 mm | - | 0 W/m² | - |
| 1777083286 | 17.22° C | 84% | 1004 hPa | 0 mm | - | 0 W/m² | - |
| 1777082982 | 17.22° C | 84% | 1004 hPa | 0 mm | - | 0 W/m² | - |
| 1777082677 | 17.78° C | 83% | 1003.8 hPa | 0 mm | - | 0 W/m² | - |
| 1777082372 | 17.78° C | 82% | 1004.1 hPa | 0 mm | - | 0 W/m² | - |
| 1777082068 | 17.78° C | 82% | 1003.9 hPa | 0 mm | - | 0 W/m² | - |
| 1777081768 | 17.78° C | 81% | 1003.8 hPa | 0 mm | - | 0 W/m² | - |
| 1777081464 | 18.33° C | 80% | 1003.7 hPa | 0 mm | - | 0 W/m² | - |
| 1777081160 | 18.33° C | 79% | 1003.8 hPa | 0 mm | - | 0 W/m² | - |
| 1777080859 | 18.89° C | 78% | 1003.7 hPa | 0 mm | - | 0 W/m² | - |
| 1777080555 | 18.89° C | 77% | 1003.9 hPa | 0 mm | - | 0 W/m² | - |
| 1777080250 | 18.89° C | 77% | 1003.6 hPa | 0 mm | - | 0 W/m² | - |
| 1777079944 | 18.89° C | 76% | 1003.3 hPa | 0 mm | - | 0 W/m² | - |
| 1777079643 | 19.44° C | 76% | 1003.7 hPa | 0 mm | - | 0 W/m² | - |
* Rain latest hour (hover to see other rain measurements)
** Current wind speed in m/s (hover to see current wind gust speed)